Weather History for Winner, SD

Change the Weather History Date:

Saturday, February 23, 2013

  Actual Average Record
Temperature  
Mean Temperature 25 °F 29 °F  
Max Temperature 35 °F 40 °F 48 °F (2009)
Min Temperature 14 °F 19 °F 9 °F (2011)
Degree Days  
Heating Degree Days 40 36  
Month to date heating degree days 825 881  
Since 1 July heating degree days 4465 4836  
Cooling Degree Days 0 0  
Month to date cooling degree days 0 0  
Year to date cooling degree days 0 0  
Moisture  
Dew Point 17 °F    
Average Humidity 70    
Maximum Humidity 88    
Minimum Humidity 51    
Precipitation  
Precipitation 0.00 in 0.02 in 0.05 in (2012)
Month to date precipitation 0.43  
Year to date precipitation 0.68  
Sea Level Pressure  
Sea Level Pressure 29.83 in    
Wind  
Wind Speed 4 mph (SSE)    
Max Wind Speed 14 mph    
Max Gust Speed 17 mph    
Visibility 10 miles    
Events      
T = Trace of Precipitation, MM = Missing Value Source: NWS Daily Summary

Daily Weather History Graph

Daily Weather History Graph

Search for Another Location

Airport:

Trip Planner

Search our weather history database for the weather conditions in past years. The results will help you decide how hot, cold, wet, or windy it might be!

Date:

Astronomy

Feb. 23, 2013 Rise Set
Actual Time 7:24 AM CST 6:21 PM CST
Civil Twilight 6:56 AM CST 6:49 PM CST
Nautical Twilight 6:22 AM CST 7:23 PM CST
Astronomical Twilight 5:49 AM CST 7:56 PM CST
Moon 4:31 PM CST (2/23) 5:50 AM CST (2/23)
Length of Visible Light 11h 53m
Length of Day
10h 56m
Waxing Gibbous, 95% of the Moon is Illuminated
Feb 23
Waxing Gibbous
Feb 25
Full
Mar 4
Last Quarter
Mar 11
New
Mar 19
First Quarter

Hourly Weather History & Observations

Time (CST) Temp. Windchill Dew Point Humidity Pressure Visibility Wind Dir Wind Speed Gust Speed Precip Events Conditions
12:53 AM 19.0 °F 11.1 °F 14.0 °F 81% 29.92 in 10.0 mi SSW 5.8 mph - N/A   Overcast
1:53 AM 23.0 °F 13.9 °F 17.1 °F 78% 29.89 in 10.0 mi SSW 8.1 mph - N/A   Overcast
2:53 AM 23.0 °F 13.1 °F 15.1 °F 72% 29.87 in 10.0 mi SW 9.2 mph - N/A   Scattered Clouds
3:53 AM 21.0 °F - 14.0 °F 74% 29.86 in 10.0 mi Calm Calm - N/A   Clear
4:53 AM 21.9 °F 14.5 °F 14.0 °F 72% 29.84 in 10.0 mi SSW 5.8 mph - N/A   Clear
5:53 AM 17.1 °F - 10.0 °F 74% 29.84 in 10.0 mi Calm Calm - N/A   Clear
6:53 AM 19.0 °F 13.9 °F 12.0 °F 74% 29.84 in 10.0 mi South 3.5 mph - N/A   Clear
7:53 AM 17.1 °F - 10.9 °F 77% 29.84 in 10.0 mi Calm Calm - N/A   Clear
8:53 AM 19.0 °F 11.1 °F 12.0 °F 74% 29.83 in 10.0 mi SW 5.8 mph - N/A   Clear
9:53 AM 21.0 °F - 12.9 °F 71% 29.82 in 10.0 mi Calm Calm - N/A   Clear
10:53 AM 25.0 °F - 15.1 °F 66% 29.82 in 10.0 mi Calm Calm - N/A   Clear
11:53 AM 28.9 °F - 18.0 °F 64% 29.81 in 10.0 mi Calm Calm - N/A   Clear
12:53 PM 33.1 °F - 18.0 °F 54% 29.80 in 10.0 mi Calm Calm - N/A   Clear
1:53 PM 32.0 °F 28.7 °F 19.9 °F 61% 29.77 in 10.0 mi East 3.5 mph - N/A   Clear
2:53 PM 32.0 °F 28.7 °F 19.9 °F 61% 29.75 in 10.0 mi SE 3.5 mph - N/A   Clear
3:53 PM 33.1 °F 26.9 °F 19.9 °F 59% 29.75 in 10.0 mi SE 6.9 mph - N/A   Clear
4:53 PM 33.1 °F - 24.1 °F 70% 29.76 in 10.0 mi Calm Calm - N/A   Clear
5:53 PM 30.0 °F 24.1 °F 21.9 °F 72% 29.78 in 10.0 mi ESE 5.8 mph - N/A   Clear
6:53 PM 25.0 °F 19.3 °F 19.9 °F 81% 29.81 in 10.0 mi ESE 4.6 mph - N/A   Clear
7:53 PM 25.0 °F 16.3 °F 19.9 °F 81% 29.83 in 10.0 mi SE 8.1 mph - N/A   Clear
8:53 PM 26.1 °F 18.4 °F 19.9 °F 78% 29.84 in 10.0 mi SE 6.9 mph - N/A   Clear
9:53 PM 23.0 °F 14.7 °F 19.0 °F 85% 29.86 in 10.0 mi ESE 6.9 mph - N/A   Scattered Clouds
10:53 PM 23.0 °F 14.7 °F 19.0 °F 85% 29.86 in 10.0 mi East 6.9 mph - N/A   Mostly Cloudy
11:53 PM 23.0 °F 18.4 °F 19.0 °F 85% 29.87 in 10.0 mi SE 3.5 mph - N/A   Overcast